Location: Dealu Mare
(46.0500°N, 22.8167°E)
Time: 23:26:28
(UTC+00:00)

Landsat 7 - Pass Details

Date: 15 January 2026
Orbit: 680 x 682 km, 97.9° (Epoch: 13 February)

Event Time Altitude Azimuth Distance (km) Brightness Sun altitude
Rises 04:58:02 0° 13° (NNE) 3,053 7.1 -11.7°
Reaches altitude 10° 05:00:17 10° 14° (NNE) 2,133 6.3 -11.3°
Maximum altitude 05:04:58 88° 106° (ESE) 688 3.8 -10.6°
Drops below altitude 10° 05:09:36 10° 194° (SSW) 2,115 6.4 -9.8°
Sets 05:11:49 0° 194° (SSW) 3,025 7.2 -9.5°
